Showing default

COSMOS 382, 4786

Orbit data source: Space-Track

COSMOS 382, 4786 is a payload satellite owned by TsKBEM (CIS) in LEO that was launched on Wed, 02 Dec 1970 UTC via a PROTON-K/D launch vehicle from the Tyuratam Missile And Space Complex (TTMTR). Payload-class satellites include a variety of spacecraft equipped with specific instruments for various scientific and technological missions. These include communications satellites like Starlink; space stations such as the ISS; scientific satellites like the Hubble; Earth observation satellites from companies like Planet Labs, Umbra, and HawkEye 360; GPS; miniature CubeSats for education and research; and military/defense satellites.

Loading next visibility...
Identifier
4786, 1970-103A
Orbit
LEO
Last TLE update
10 hours ago
Origin
Manufacturer
TsKBEM
Mission
Civil Spaceship
Bus & Motor
7K-L1E, Unknown motor
Mass
~19,040 kg wet, ~2,800 kg dry
Launch date (UTC)
1970-12-02 (55 years ago)
Launch vehicle
PROTON-K/D
Launch site
Tyuratam Missile And Space Complex (TTMTR)
Object type
Payload
Rocket body
Debris
Shape & HBR
Sphere, 2 m
Radar Cross Section
19.635 m², Large (>1 m²)

Expand to show TLE details & history

TLE from 10 hours ago
0 COSMOS 382
1 04786U 70103A   25182.76914426 -.00000026  00000-0  00000-0 0  9992
2 04786  55.8730 329.4502 1357176 140.0729 340.0148  8.42042264679052
Epoch: 2025-07-01T18:27Z
TLE epoch observation values (Epoch: 2025-07-01T18:27:34.064Z)
Latitude
49.35769°
Longitude
-99.31807°
Altitude
2,559.008 km
Speed
7.089 km/s
True Right ascension
06h 30m 32s
True Declination
49° 13' 19"
Sunlit
Object was in daylight at epoch
Visualization orbit readout
Latitude
-27.06412°
Longitude
111.8336°
Altitude
5,209.277 km
Speed
5.457 km/s
Apparent Right ascension
22h 28m 24s
Apparent Declination
-45° 15' 04"
Sunlit
Object is in full shadow
Visualization observer readout
Local Sidereal Time
16:21:04
Azimuth
127.002° SE
Elevation
-28.228°
Doppler factor
1
Orbital elements
Apogee altitude
5,212.606 km
Perigee altitude
2,442.432 km
Semi-major axis
10,205.656 km
Eccentricity
0.13572
Inclination
55.873°
RAAN
329.4502°
Arg. of periapsis
140.0729°
True anomaly
Unknown
Mean anomaly
340.0148°
Eccentric anomaly
Unknown
Mean motion
2.10514 °/min
Orbital period
171.01 mins
BSTAR
0
Loading maneuver chart data...
Loading SW <> Apogee altitude chart data...
Loading historical data...
Loading historical data...
Loading historical data...
Loading historical data...
Loading historical data...
Loading historical data...
Loading historical data...

COSMOS 382 Visibility forecast

Observer location: undefined°, undefined°

Span
Click to sort rows by Start time (UTC) header in descending order
Start Az.
Max El. time (UTC)
Max El. Az.
Max El.
End time (UTC)
End Az.
41 mins2025-07-02 10:38:37.656Z193.349° SSW2025-07-02 11:02:37.656Z125° SE40.326°2025-07-02 11:19:37.656Z49.944° ENE
35 mins2025-07-02 13:44:37.656Z249.998° W2025-07-02 14:05:37.656Z333.454° NNW41.044°2025-07-02 14:19:37.656Z48.957° ENE
26 mins2025-07-02 16:56:37.656Z301.791° NW2025-07-02 17:10:37.656Z8.356° NNE35.758°2025-07-02 17:22:37.656Z81.889° E
25 mins2025-07-02 20:00:37.656Z312.573° NW2025-07-02 20:12:37.656Z251.674° W44.427°2025-07-02 20:25:37.656Z145.627° SSE
8 mins2025-07-02 23:06:37.656Z270.522° WNW2025-07-02 23:09:37.656Z255.814° W12.954°2025-07-02 23:14:37.656Z231.886° WSW
|